Time,TemperatureF,DewpointF,PressureIn,WindDirection,WindDirectionDegrees,WindSpeedMPH,WindSpeedGustMPH,Humidity,HourlyPrecipIn,Conditions,Clouds,dailyrainin,SoftwareType,DateUTC
2013-01-23 12:52:00,6.7,-3.6,29.70,NNW,341,2.0,13.0,62,0.00,,,0.00,Wunderground v.1.13,2013-01-23 21:52:00,
2013-01-23 12:57:00,6.7,-3.6,29.70,NNE,13,0.0,12.0,62,0.00,,,0.00,Wunderground v.1.13,2013-01-23 21:57:00,
2013-01-23 13:02:00,6.7,-3.9,29.70,NNE,20,9.0,12.0,61,0.00,,,0.00,Wunderground v.1.13,2013-01-23 22:02:00,
2013-01-23 13:07:00,6.7,-4.3,29.70,North,351,1.0,4.0,60,0.00,,,0.00,Wunderground v.1.13,2013-01-23 22:07:00,
2013-01-23 13:12:00,6.7,-3.9,29.70,NE,34,2.0,4.0,61,0.00,,,0.00,Wunderground v.1.13,2013-01-23 22:12:00,
2013-01-23 13:17:00,6.5,-4.5,29.70,NNW,340,3.0,9.0,60,0.00,,,0.00,Wunderground v.1.13,2013-01-23 22:17:00,
2013-01-23 13:22:00,6.5,-4.5,29.70,NW,326,1.0,4.0,60,0.00,,,0.00,Wunderground v.1.13,2013-01-23 22:22:00,
2013-01-23 13:27:00,6.5,-4.5,29.69,NNE,19,1.0,4.0,60,0.00,,,0.00,Wunderground v.1.13,2013-01-23 22:27:00,
2013-01-23 13:33:00,6.5,-4.8,29.69,NW,322,2.0,3.0,59,0.00,,,0.00,Wunderground v.1.13,2013-01-23 22:33:00,
2013-01-23 13:38:00,6.5,-4.5,29.69,NNW,327,3.0,5.0,60,0.00,,,0.00,Wunderground v.1.13,2013-01-23 22:38:00,
2013-01-23 13:43:00,6.5,-4.5,29.69,North,349,2.0,3.0,60,0.00,,,0.00,Wunderground v.1.13,2013-01-23 22:43:00,
2013-01-23 13:48:00,6.3,-4.3,29.69,ENE,72,3.0,5.0,61,0.00,,,0.00,Wunderground v.1.13,2013-01-23 22:48:00,
2013-01-23 13:53:00,6.3,-4.6,29.69,NNE,20,6.0,7.0,60,0.00,,,0.00,Wunderground v.1.13,2013-01-23 22:53:00,
2013-01-23 13:58:00,6.3,-4.3,29.69,North,360,0.0,7.0,61,0.00,,,0.00,Wunderground v.1.13,2013-01-23 22:58:00,
2013-01-23 14:03:00,6.3,-4.3,29.69,NW,315,3.0,4.0,61,0.00,,,0.00,Wunderground v.1.13,2013-01-23 23:03:00,
2013-01-23 14:08:00,6.3,-4.6,29.69,North,360,0.0,10.0,60,0.00,,,0.00,Wunderground v.1.13,2013-01-23 23:08:00,
2013-01-23 14:13:00,6.3,-4.6,29.70,NE,34,0.0,5.0,60,0.00,,,0.00,Wunderground v.1.13,2013-01-23 23:13:00,
2013-01-23 14:18:00,6.3,-5.0,29.70,NNW,328,2.0,12.0,59,0.00,,,0.00,Wunderground v.1.13,2013-01-23 23:18:00,
2013-01-23 14:23:00,6.3,-5.0,29.70,NNW,333,8.0,11.0,59,0.00,,,0.00,Wunderground v.1.13,2013-01-23 23:23:00,
2013-01-23 14:28:00,6.3,-5.0,29.70,NNE,24,2.0,12.0,59,0.00,,,0.00,Wunderground v.1.13,2013-01-23 23:28:00,
2013-01-23 14:33:00,6.1,-4.8,29.70,NNW,337,2.0,4.0,60,0.00,,,0.00,Wunderground v.1.13,2013-01-23 23:33:00,
2013-01-23 14:38:00,6.1,-4.8,29.70,NNE,13,9.0,9.0,60,0.00,,,0.00,Wunderground v.1.13,2013-01-23 23:38:00,
2013-01-23 14:43:00,6.1,-4.8,29.69,North,5,1.0,11.0,60,0.00,,,0.00,Wunderground v.1.13,2013-01-23 23:43:00,
2013-01-23 14:48:00,6.0,-4.9,29.69,NNE,30,2.0,7.0,60,0.00,,,0.00,Wunderground v.1.13,2013-01-23 23:48:00,
2013-01-23 14:53:00,6.1,-4.8,29.69,NNW,340,3.0,6.0,60,0.00,,,0.00,Wunderground v.1.13,2013-01-23 23:53:00,
2013-01-23 14:58:00,6.1,-4.8,29.69,NW,313,2.0,3.0,60,0.00,,,0.00,Wunderground v.1.13,2013-01-23 23:58:00,
2013-01-23 15:03:00,6.0,-4.6,29.69,North,9,2.0,3.0,61,0.00,,,0.00,Wunderground v.1.13,2013-01-24 00:03:00,
2013-01-23 15:08:00,6.0,-4.9,29.69,NE,46,0.0,4.0,60,0.00,,,0.00,Wunderground v.1.13,2013-01-24 00:08:00,
2013-01-23 15:13:00,6.0,-4.9,29.69,North,5,6.0,9.0,60,0.00,,,0.00,Wunderground v.1.13,2013-01-24 00:13:00,
2013-01-23 15:18:00,5.8,-5.5,29.69,NNE,24,9.0,9.0,59,0.00,,,0.00,Wunderground v.1.13,2013-01-24 00:18:00,
2013-01-23 15:23:00,5.8,-5.5,29.69,North,11,4.0,10.0,59,0.00,,,0.00,Wunderground v.1.13,2013-01-24 00:23:00,
2013-01-23 15:28:00,5.8,-5.5,29.69,NNE,19,2.0,10.0,59,0.00,,,0.00,Wunderground v.1.13,2013-01-24 00:28:00,
2013-01-23 15:33:00,5.8,-5.1,29.69,NNW,346,2.0,7.0,60,0.00,,,0.00,Wunderground v.1.13,2013-01-24 00:33:00,
2013-01-23 15:38:00,5.8,-5.5,29.69,NNW,344,0.0,7.0,59,0.00,,,0.00,Wunderground v.1.13,2013-01-24 00:38:00,
2013-01-23 15:44:00,5.8,-5.1,29.69,NNE,22,0.0,3.0,60,0.00,,,0.00,Wunderground v.1.13,2013-01-24 00:44:00,
2013-01-23 15:49:00,5.8,-5.5,29.69,ESE,105,3.0,9.0,59,0.00,,,0.00,Wunderground v.1.13,2013-01-24 00:49:00,
2013-01-23 15:54:00,5.6,-5.7,29.69,NNE,15,5.0,7.0,59,0.00,,,0.00,Wunderground v.1.13,2013-01-24 00:54:00,
2013-01-23 15:59:00,5.6,-5.7,29.69,NE,50,2.0,6.0,59,0.00,,,0.00,Wunderground v.1.13,2013-01-24 00:59:00,
2013-01-23 16:04:00,5.6,-5.3,29.69,NE,38,0.0,7.0,60,0.00,,,0.00,Wunderground v.1.13,2013-01-24 01:04:00,
2013-01-23 16:09:00,5.6,-5.7,29.69,North,9,1.0,3.0,59,0.00,,,0.00,Wunderground v.1.13,2013-01-24 01:09:00,
2013-01-23 16:14:00,5.6,-5.7,29.69,NNW,339,2.0,7.0,59,0.00,,,0.00,Wunderground v.1.13,2013-01-24 01:14:00,
2013-01-23 16:19:00,5.6,-5.3,29.69,North,5,3.0,7.0,60,0.00,,,0.00,Wunderground v.1.13,2013-01-24 01:19:00,
2013-01-23 16:24:00,5.4,-5.5,29.69,NW,320,2.0,5.0,60,0.00,,,0.00,Wunderground v.1.13,2013-01-24 01:24:00,
2013-01-23 16:29:00,5.4,-5.5,29.69,NW,311,3.0,7.0,60,0.00,,,0.00,Wunderground v.1.13,2013-01-24 01:29:00,
2013-01-23 16:34:00,5.4,-5.5,29.69,North,355,0.0,4.0,60,0.00,,,0.00,Wunderground v.1.13,2013-01-24 01:34:00,
2013-01-23 16:39:00,5.4,-5.5,29.69,North,355,1.0,7.0,60,0.00,,,0.00,Wunderground v.1.13,2013-01-24 01:39:00,
2013-01-23 16:44:00,5.4,-5.5,29.69,NNW,344,1.0,7.0,60,0.00,,,0.00,Wunderground v.1.13,2013-01-24 01:44:00,
2013-01-23 16:49:00,5.2,-5.7,29.69,NW,316,3.0,5.0,60,0.00,,,0.00,Wunderground v.1.13,2013-01-24 01:49:00,
2013-01-23 16:54:00,5.2,-5.7,29.69,NW,318,3.0,5.0,60,0.00,,,0.00,Wunderground v.1.13,2013-01-24 01:54:00,
2013-01-23 17:02:00,5.2,-5.7,29.69,NNW,344,2.0,2.0,60,0.00,,,0.00,Wunderground v.1.13,2013-01-24 02:02:00,
2013-01-23 17:08:00,5.2,-5.7,29.69,NNW,339,1.0,3.0,60,0.00,,,0.00,Wunderground v.1.13,2013-01-24 02:08:00,